Temp
18 20 22 24 23 24 21 21 21 22 23 21 21 21 22 23 23 23 23 24 24 24 23 22 20 19 18 18 16 16 15 14 13 12 12 12 12 11 11 11 10 10 10 11
18 20 22 20 19 19 20 19 20 22 21 18 21 20 22 22 22 23 23 23 23 22 22 21 18 17 15 15 14 14 14 13 12 12 12 12 11 11 11 10 9 9 9 10
21 23 19 18 20 19 20 19 21 21 20 20 19 22 21 24 21 22 22 21 21 20 19 18 16 13 12 11 11 11 12 12 11 11 11 10 9 9 9 9 8 7 8 8
18 17 17 17 18 20 19 21 19 18 18 21 19 21 23 24 24 22 22 22 20 18 17 15 13 11 10 9 8 9 9 10 9 10 10 9 10 10 9 9 8 7 7 7
21 16 16 16 19 18 20 17 17 16 18 17 20 18 24 21 22 23 21 18 17 15 13 12 10 9 8 7 7 7 8 8 8 8 9 9 10 11 10 8 8 7 6 6
18 14 17 20 16 16 15 17 16 15 17 19 21 20 23 23 22 21 17 13 12 11 11 10 9 8 8 7 6 6 7 7 7 7 8 8 9 9 9 8 8 8 6 5
19 17 16 16 18 15 16 18 19 19 19 20 18 17 21 23 17 16 13 11 10 10 10 9 9 8 7 6 6 6 6 6 6 6 6 7 7 7 8 8 8 8 6 5
19 19 17 16 19 20 17 18 19 17 19 20 13 18 22 19 13 11 10 10 9 9 9 9 8 8 7 6 6 6 6 5 5 5 5 5 5 6 7 7 7 7 7 6
19 19 15 14 15 18 16 16 18 16 14 16 19 21 22 18 11 10 9 9 8 8 8 8 7 7 6 6 6 5 5 5 4 4 4 4 4 4 5 5 5 6 5 5
16 15 16 16 14 15 16 17 16 16 15 15 18 19 20 18 12 9 8 8 8 8 7 7 7 6 6 5 5 5 5 4 4 4 3 4 4 4 3 4 4 4 5 5
16 15 16 14 16 17 17 15 15 15 15 14 14 17 16 12 8 8 7 7 7 7 7 7 7 6 5 5 4 5 4 4 3 3 3 3 3 3 3 3 3 3 3 3
16 12 12 15 17 15 16 16 16 14 14 16 15 15 9 8 7 6 6 6 6 6 7 7 6 6 5 5 4 4 3 3 2 2 2 2 2 1 2 2 2 3 3 3
13 11 12 13 14 11 13 14 14 15 11 12 12 13 8 7 7 6 6 6 5 5 6 6 6 5 5 4 4 4 3 3 2 2 1 1 1 1 1 1 1 1 2 2
10 10 12 12 14 15 13 13 13 13 11 12 13 14 15 9 8 7 7 6 5 5 5 5 5 5 5 4 4 3 3 2 1 1 1 1 0 -0 -0 1 1 1 1 1
10 10 11 10 10 10 10 10 11 11 10 9 11 11 12 12 8 6 6 6 5 5 5 5 4 4 4 3 3 3 2 2 0 0 0 0 0 -0 -1 -1 -0 1 2 1
9 8 10 9 11 10 9 10 10 10 9 9 10 10 12 5 5 5 6 5 5 5 5 5 4 4 3 3 2 1 1 1 -0 -1 -1 -1 -2 -2 -2 -1 -1 -1 -0 0
7 7 8 8 9 8 6 7 9 10 11 11 10 9 4 5 5 6 5 5 5 5 5 4 4 3 3 1 0 0 -0 -1 -2 -2 -2 -2 -2 -3 -3 -4 -3 -2 -2 -2
6 6 6 6 6 6 10 8 8 8 8 5 3 2 3 4 5 5 5 4 5 5 4 4 3 3 2 1 -0 -1 -2 -3 -3 -3 -3 -3 -3 -4 -5 -5 -4 -3 -3 -3
6 6 6 5 6 7 8 9 7 7 8 4 4 4 5 4 3 4 5 5 4 5 4 3 2 1 -0 -1 -2 -3 -3 -4 -3 -4 -4 -4 -5 -6 -6 -7 -6 -5 -5 -4
5 5 5 1 3 4 8 5 5 5 4 2 2 3 3 3 3 5 6 5 5 4 3 1 0 -1 -1 -1 -2 -4 -4 -5 -5 -5 -5 -6 -6 -8 -8 -8 -8 -7 -7 -5
2 1 3 4 4 5 4 2 4 3 4 2 2 3 3 3 4 5 5 4 4 2 1 -1 -1 -2 -2 -3 -4 -5 -6 -6 -6 -7 -8 -8 -9 -10 -10 -11 -10 -10 -9 -8
4 3 1 -2 0 2 3 2 3 5 4 4 4 4 3 4 4 4 4 4 3 1 -1 -1 -2 -3 -4 -5 -7 -8 -8 -8 -9 -10 -11 -11 -12 -13 -13 -13 -13 -12 -11 -10
2 4 3 2 4 4 3 4 4 4 3 4 4 4 4 3 3 4 3 1 -1 -2 -2 -4 -6 -7 -7 -9 -10 -10 -10 -11 -13 -14 -14 -15 -15 -16 -16 -15 -15 -14 -13 -11
3 4 2 3 4 4 5 5 5 5 4 5 4 3 3 2 2 1 -1 -2 -3 -4 -6 -7 -9 -10 -11 -11 -12 -13 -14 -15 -16 -17 -17 -17 -18 -18 -17 -17 -16 -16 -14 -13
3 2 2 2 3 4 4 4 5 5 4 4 2 0 -0 -2 -2 -3 -4 -5 -6 -8 -9 -10 -12 -13 -13 -14 -15 -16 -17 -18 -18 -18 -19 -19 -19 -19 -18 -18 -18 -17 -16 -15
3 3 2 2 4 4 4 5 5 3 3 -1 -2 -3 -5 -5 -6 -6 -7 -8 -10 -11 -12 -13 -14 -15 -16 -17 -17 -18 -18 -19 -19 -19 -19 -19 -19 -19 -19 -18 -18 -18 -17 -15
Height
819 817 813 798 800 795 805 808 806 792 786 795 786 784 778 764 760 756 750 751 747 746 745 742 740 738 736 731 728 730 732 734 735 740 744 747 747 752 755 756 758 762 766 769
820 812 795 803 808 810 807 809 801 790 787 799 784 782 769 761 753 749 749 748 747 749 746 746 745 742 741 737 732 729 728 730 735 737 740 744 746 747 750 754 757 760 761 764
801 792 799 808 805 809 804 805 793 793 793 787 789 770 767 753 754 750 747 749 751 753 754 752 751 749 746 741 736 731 731 733 733 736 742 744 744 745 748 752 757 760 764 764
807 805 805 809 808 801 804 790 796 799 799 789 791 771 759 748 747 749 750 751 757 761 762 764 763 758 753 748 744 735 734 735 738 740 742 743 744 745 747 746 746 753 761 765
791 804 808 808 799 799 791 798 802 805 798 798 786 792 748 754 753 749 756 765 768 773 774 773 773 765 761 751 738 742 742 742 742 742 743 744 744 744 746 748 748 749 751 756
797 806 801 789 797 798 803 801 801 807 801 787 770 780 753 750 749 753 766 777 780 779 777 775 775 770 757 753 752 749 747 746 748 747 746 744 744 745 743 744 745 747 747 747
791 796 796 797 795 800 802 798 796 793 792 779 775 783 754 749 761 764 770 778 778 782 777 770 765 766 771 769 765 757 751 752 752 750 750 747 744 743 745 743 741 742 743 743
792 786 790 791 784 776 792 788 790 797 783 769 799 768 744 754 773 779 780 782 783 781 781 779 778 778 775 775 771 768 761 758 757 754 751 747 744 742 742 741 741 739 739 738
789 779 788 792 789 787 793 793 781 791 795 789 759 740 732 749 776 781 785 787 789 789 787 786 786 786 781 778 775 772 770 765 762 760 755 745 746 742 740 739 741 739 735 735
795 802 786 786 793 790 791 782 788 789 795 784 761 749 739 747 771 783 788 791 791 790 789 789 786 788 787 784 777 774 772 768 764 761 754 751 749 745 740 739 736 737 734 731
794 800 783 792 782 778 781 786 787 784 782 781 774 752 752 765 786 786 791 793 794 793 792 791 789 786 785 783 780 773 769 767 760 755 759 753 751 748 742 737 736 733 731 731
791 800 799 779 773 778 776 777 774 778 774 762 760 751 776 781 788 790 795 796 797 795 794 790 788 787 784 782 779 776 773 768 764 761 762 753 750 748 744 739 736 732 726 726
795 799 792 784 778 786 781 774 772 766 779 770 766 758 783 788 787 790 787 793 796 795 795 792 788 786 785 782 782 779 775 771 767 762 762 755 749 747 741 741 738 732 726 723
801 797 789 783 768 766 771 773 771 775 776 763 757 747 744 772 778 781 785 788 791 790 790 788 788 788 785 783 781 778 773 769 765 765 760 754 750 748 744 738 734 728 728 724
798 794 787 786 786 784 779 781 777 773 775 779 757 759 753 757 775 781 783 783 785 785 785 787 788 786 785 783 782 777 772 769 766 762 758 753 750 747 742 735 733 730 725 722
799 795 788 788 777 778 781 773 770 772 774 770 766 756 749 778 780 780 779 779 780 781 783 784 784 783 781 779 777 774 771 767 763 757 753 750 746 743 739 735 730 727 722 715
805 801 794 782 779 784 788 779 772 761 752 750 749 754 779 780 779 777 778 779 778 779 779 778 777 776 775 774 773 769 766 762 758 754 750 746 742 738 734 730 726 723 719 713
803 801 798 786 791 783 754 766 767 761 757 772 779 784 782 779 777 778 778 777 775 776 775 774 773 771 769 767 765 763 760 756 753 749 746 743 739 734 729 725 722 717 713 709
794 792 790 791 782 762 762 762 766 766 754 775 776 778 777 778 780 774 774 772 771 771 771 770 770 768 765 763 760 757 754 751 748 744 740 737 733 729 724 719 714 710 707 701
793 794 794 813 796 780 755 772 774 773 770 778 780 778 778 779 774 764 765 767 767 767 768 768 766 764 762 758 756 752 749 745 741 738 734 731 728 723 718 714 708 702 698 691
803 807 797 786 783 769 772 778 776 779 770 778 779 776 774 773 766 762 763 764 764 765 765 766 764 761 759 756 753 749 745 740 736 731 727 723 719 714 710 704 699 694 688 681
785 789 799 817 802 787 775 779 776 763 766 769 768 767 766 764 762 761 758 757 760 763 763 762 760 757 754 753 750 745 738 735 730 725 719 714 709 705 700 695 689 684 679 672
794 779 779 789 773 768 773 768 764 763 764 760 760 758 759 759 757 754 755 758 760 761 760 760 759 754 749 748 746 739 730 728 722 716 709 704 700 695 690 684 677 673 668 661
777 776 779 779 764 762 761 759 757 755 754 754 755 755 755 754 754 755 757 759 759 759 758 756 754 749 742 742 739 735 727 722 716 708 701 696 691 684 680 675 669 664 657 650
768 775 772 768 761 757 753 752 750 749 749 749 751 753 754 756 755 757 758 759 758 758 757 756 753 747 739 736 731 727 722 717 709 701 694 688 683 676 668 663 658 652 645 642
759 758 761 754 747 748 742 744 744 745 745 749 752 754 756 758 758 758 758 758 758 757 755 751 748 743 735 729 723 718 715 709 702 694 687 680 673 667 659 651 642 640 633 626
Wind_Speed
4 6 11 17 18 19 10 14 18 23 20 16 20 19 18 24 22 24 22 16 14 13 14 16 18 20 19 14 12 13 15 17 20 23 24 27 29 28 30 32 32 33 38 42
5 11 19 4 6 11 13 14 21 16 15 3 14 19 23 18 15 14 14 13 10 11 14 20 26 26 27 25 20 12 10 13 17 18 21 22 22 25 26 26 27 31 34 40
16 11 5 8 12 14 13 14 17 16 13 13 11 13 5 9 10 5 4 5 8 13 18 20 26 31 31 30 28 19 11 8 11 14 14 15 10 14 17 21 22 24 28 34
7 2 5 7 11 12 13 10 15 11 6 10 8 11 8 7 9 3 8 15 13 16 18 18 20 26 30 30 27 27 19 7 5 8 10 14 15 15 15 18 21 23 26 29
2 6 5 5 7 9 5 2 2 1 6 7 3 7 1 2 2 7 12 14 15 17 18 19 21 26 27 33 38 31 26 19 10 3 7 10 14 13 12 10 14 19 21 27
11 2 4 4 2 3 4 1 1 0 3 8 4 7 3 3 3 6 11 13 13 15 16 18 24 28 36 36 33 33 31 28 21 12 7 9 12 13 13 12 12 15 18 22
3 5 2 3 6 2 5 3 7 6 6 12 4 6 8 7 8 7 9 11 14 15 16 18 22 27 30 34 33 30 32 32 27 20 15 12 11 13 16 15 13 14 15 19
9 16 8 7 9 6 9 7 6 8 15 17 6 10 9 11 13 13 13 13 14 15 15 18 19 23 23 24 27 28 29 29 28 28 23 16 13 13 15 15 15 15 16 18
11 15 3 4 1 2 6 7 3 7 6 8 16 23 17 9 11 10 11 11 13 14 14 15 18 20 22 22 23 24 25 24 25 25 25 27 20 16 15 15 17 18 15 16
2 9 3 2 2 5 8 3 8 5 8 20 17 20 13 7 5 7 8 9 9 10 11 11 13 16 17 18 20 20 20 23 24 23 24 25 25 23 18 16 16 20 22 21
6 7 16 3 9 19 10 8 6 5 6 7 10 13 7 3 4 5 5 7 9 11 11 11 13 13 15 16 18 22 24 24 26 26 25 23 25 26 25 23 19 16 17 18
10 4 9 22 13 5 4 12 14 10 11 13 14 18 2 3 6 6 4 2 3 6 10 10 13 15 16 18 20 19 19 21 23 23 22 23 24 25 27 26 26 25 22 20
2 4 5 6 6 3 6 8 16 16 4 13 9 3 7 6 5 4 2 3 2 3 7 8 9 14 15 16 17 18 18 18 18 21 21 23 26 29 30 32 30 31 26 23
4 5 13 17 18 12 9 9 12 14 8 14 17 24 20 11 6 3 3 3 2 1 4 7 8 11 14 16 18 18 19 19 19 19 19 20 21 24 28 35 38 36 34 27
4 7 14 13 15 17 17 15 18 20 17 10 21 20 20 16 6 4 2 3 3 4 6 6 7 8 11 13 16 17 18 19 19 19 19 19 19 22 26 30 35 38 38 35
3 7 15 23 22 20 19 18 21 19 20 23 26 27 19 3 3 4 4 5 5 6 9 9 9 10 11 13 14 15 16 18 20 24 23 21 18 19 25 30 31 33 35 35
9 6 9 20 13 14 11 17 19 21 24 24 23 14 5 1 4 6 6 7 8 7 11 12 12 15 15 15 16 17 18 19 20 26 29 29 26 24 24 28 28 27 29 29
11 12 7 13 9 20 14 5 11 18 18 5 2 4 3 4 7 6 9 10 12 9 10 12 14 18 19 20 19 19 20 21 21 22 23 23 24 28 28 27 28 28 28 28
18 14 8 9 15 21 23 16 12 12 18 7 7 4 4 4 6 12 13 14 15 12 12 13 14 18 21 21 21 20 21 21 22 24 25 24 23 27 32 34 33 31 30 32
8 14 11 3 8 13 10 2 4 3 6 8 3 3 7 3 9 11 13 9 12 16 12 14 16 19 20 25 25 22 23 24 26 26 27 27 26 27 30 32 35 39 35 35
1 2 11 12 12 10 4 5 4 5 4 6 5 11 11 10 12 16 14 11 15 13 13 13 17 20 22 24 21 24 26 27 28 27 28 30 31 32 33 34 36 36 38 38
5 4 5 1 4 10 6 6 6 1 6 8 12 14 14 14 14 14 13 14 11 10 13 18 19 22 27 25 23 26 30 30 30 29 32 35 35 35 36 36 36 36 35 36
6 10 5 8 5 0 9 6 11 12 13 16 14 15 12 13 13 13 11 7 8 13 16 17 16 21 29 25 22 27 34 33 35 36 37 37 36 35 35 35 35 32 32 32
12 13 11 10 19 19 19 18 19 17 16 16 14 13 12 13 11 8 7 8 9 14 15 16 18 22 29 28 28 28 34 34 35 38 38 36 35 35 34 33 32 31 30 29
11 3 8 14 19 19 20 19 21 21 17 14 7 4 5 4 6 7 8 9 12 15 17 16 18 23 29 30 30 30 32 33 35 36 36 35 33 33 33 32 32 31 33 33
14 20 12 15 19 15 20 18 17 12 12 3 3 3 1 2 5 7 7 11 13 16 19 21 22 24 28 31 32 33 32 32 33 34 33 32 33 33 33 33 34 35 40 41
Wind_Direction
140 200 224 245 232 250 290 282 284 278 285 296 290 299 294 281 286 286 285 303 305 320 333 349 359 353 335 329 314 277 252 236 211 213 214 216 220 221 222 218 216 212 212 211
161 223 231 279 262 252 260 268 271 282 283 263 287 300 292 295 271 278 298 301 328 356 18 17 16 14 6 358 352 327 268 236 225 218 218 216 229 231 229 227 225 218 213 212
239 265 243 219 256 258 253 258 273 272 320 275 301 280 251 279 266 333 299 309 51 40 20 17 20 19 14 11 3 355 333 272 229 221 222 218 237 225 223 231 235 230 222 218
243 325 228 209 247 250 273 268 265 280 307 298 14 303 294 263 276 358 43 60 41 25 29 31 25 26 22 18 17 20 12 0 292 234 234 228 239 237 240 230 224 226 228 226
238 171 168 195 223 182 258 55 349 348 283 300 287 267 2 253 225 131 63 49 34 33 31 28 22 29 28 27 26 26 26 21 8 308 253 253 255 261 270 264 242 229 226 225
265 352 234 235 157 188 136 138 107 257 272 265 297 224 346 134 76 77 92 58 46 32 33 33 26 24 26 31 33 32 31 27 14 356 322 289 280 275 267 268 251 238 230 224
280 216 219 214 235 139 212 261 285 257 242 267 137 227 250 253 63 62 55 66 52 38 32 34 31 29 24 21 23 29 34 30 23 14 355 329 305 291 285 278 262 245 233 229
273 281 197 170 227 264 196 209 237 273 274 283 93 261 277 102 72 62 54 49 36 32 30 31 28 26 26 24 25 24 27 27 22 22 11 358 338 316 301 292 273 260 252 245
295 270 118 199 177 268 156 207 283 269 264 281 265 259 263 150 75 65 53 42 33 27 26 25 23 19 17 21 25 24 24 27 23 20 16 20 3 345 323 306 291 282 269 262
333 290 276 339 184 217 245 330 250 221 258 254 253 259 256 205 105 73 44 34 29 27 25 21 23 16 15 14 15 22 23 21 20 18 20 17 14 12 353 327 309 300 293 280
292 245 272 179 241 269 247 242 232 268 255 263 262 252 343 344 132 86 45 26 17 12 7 7 9 10 10 12 13 13 13 13 14 14 9 12 9 9 10 6 344 320 305 288
252 266 245 267 288 270 259 259 242 246 247 240 263 264 108 148 150 148 158 112 36 19 355 353 4 2 1 2 4 6 9 9 5 3 359 7 6 3 3 2 357 353 337 319
138 240 281 258 236 188 212 235 250 259 274 241 258 226 186 186 188 182 174 202 226 351 4 352 355 356 356 356 354 355 356 359 359 358 355 356 359 1 0 354 351 349 347 335
66 239 248 260 271 315 266 254 269 274 261 272 262 276 277 224 236 248 236 230 257 351 359 1 344 341 344 345 345 344 347 350 351 349 350 353 354 349 349 352 352 351 346 336
203 266 262 264 270 271 270 269 266 260 264 260 280 281 275 280 288 255 286 308 285 334 346 338 326 316 324 325 326 331 337 337 338 339 340 341 340 340 342 345 343 344 344 340
266 269 281 273 274 266 263 261 256 268 268 264 264 265 278 19 163 238 263 305 263 311 326 326 320 312 305 317 317 313 317 322 324 326 327 327 327 325 332 335 334 332 334 337
265 270 269 272 279 298 266 241 254 262 265 269 273 295 88 110 260 262 265 278 253 298 322 322 319 317 308 309 315 309 310 311 309 312 316 320 321 319 321 323 323 319 319 320
249 254 250 268 268 254 272 318 272 268 282 304 142 129 182 265 295 272 255 266 254 269 308 317 315 315 314 308 308 307 302 302 301 296 303 307 310 313 316 315 313 308 309 307
228 241 259 257 259 282 288 273 254 251 275 180 150 182 244 269 277 273 255 261 250 257 292 304 308 308 307 307 310 303 298 299 294 290 298 299 300 303 307 308 308 304 301 298
227 235 245 229 257 265 292 71 101 107 267 176 176 276 282 236 278 294 310 263 248 253 283 309 313 311 308 312 315 308 301 300 296 295 293 291 290 292 295 297 297 298 296 291
208 205 231 238 253 263 231 135 138 222 294 177 223 264 272 249 260 289 294 270 260 268 286 304 305 302 305 311 314 303 301 297 300 298 294 292 289 288 289 290 289 289 289 289
247 249 215 190 247 270 125 119 217 212 281 279 280 276 276 268 274 277 272 274 281 281 305 313 310 306 305 311 314 304 298 305 304 300 294 290 289 289 288 287 285 284 282 281
253 223 255 214 243 284 194 251 236 287 273 286 286 288 277 270 265 274 287 288 296 306 309 312 307 303 302 309 310 302 300 306 303 299 294 294 294 291 288 285 283 282 280 274
259 254 251 271 260 262 266 264 272 280 278 283 284 278 279 269 282 287 298 306 310 314 315 319 317 308 302 309 307 301 300 302 301 297 297 298 296 294 290 284 280 278 274 273
244 245 239 254 264 274 266 264 266 272 281 277 258 250 255 272 281 300 306 309 309 311 313 313 308 300 298 305 302 300 299 300 297 296 295 295 293 291 289 283 279 276 272 270
239 241 246 255 265 259 269 273 278 271 270 211 213 213 163 329 307 316 302 307 311 312 314 309 304 300 299 300 301 302 302 300 297 295 294 292 291 290 287 286 284 278 278 277